Regional Weather Roundup
Issued by NWS Little Rock, AR

Current Version | Previous Version | Text Only | Print | Product List | Glossary On
Versions: 1 2 3 4 5 6 7 8 9 10 11 12 13 14 15 16 17 18 19 20 21 22 23 24 25 26 27 28 29 30 31 32 33 34 35 36 37 38 39 40 41 42 43 44 45 46 47 48 49 50
000
ASUS44 KLZK 180605
RWRLZK

WEATHER ROUNDUP FOR ARKANSAS
NATIONAL WEATHER SERVICE LITTLE ROCK AR
100 AM CDT SAT APR 18 2015

NOTE: "FAIR" INDICATES FEW OR NO CLOUDS BELOW 12,000 FEET WITH NO
SIGNIFICANT WEATHER AND/OR OBSTRUCTIONS TO VISIBILITY.

ARZ001-003-010-029-180700-
NORTHWEST ARKANSAS

CITY           SKY/WX    TMP DP  RH WIND       PRES   REMARKS
FAYETTEVILLE   FAIR      59  58  96 CALM      29.99S
6HR MIN TEMP:  59; 6HR MAX TEMP:  72;

FORT SMITH     FAIR      67  63  87 E6        29.96S
6HR MIN TEMP:  67; 6HR MAX TEMP:  78;

HARRISON       FAIR      59  59 100 SE6       30.02S
6HR MIN TEMP:  59; 6HR MAX TEMP:  68;

BENTONVILLE    FAIR     N/A N/A N/A NE5       30.00F
6HR MIN TEMP:  63; 6HR MAX TEMP:  75; 6HR PCP:  1.11;

ROGERS         FAIR      62  61  96 E7        30.01S
6HR MIN TEMP:  61; 6HR MAX TEMP:  75;

SILOAM SPGS    FAIR      64  55  72 E6        30.00R
6HR MIN TEMP:  61; 6HR MAX TEMP:  73;

HIGHFILL       FAIR      61  58  90 NE3       29.99S
6HR MIN TEMP:  59; 6HR MAX TEMP:  77;

$$

ARZ004-005-016-180700-
NORTH CENTRAL ARKANSAS

CITY           SKY/WX    TMP DP  RH WIND       PRES   REMARKS
BATESVILLE     CLOUDY    63  61  94 NE3       30.01F
6HR MIN TEMP:  61; 6HR MAX TEMP:  70;

FLIPPIN        FAIR      61 N/A N/A CALM      29.99F
6HR MIN TEMP:  61; 6HR MAX TEMP:  72;

MTN HOME       FAIR      61  60  97 CALM      30.00S
6HR MIN TEMP:  61; 6HR MAX TEMP:  69;

$$

ARZ040-041-180700-
WEST CENTRAL ARKANSAS

CITY           SKY/WX    TMP DP  RH WIND       PRES   REMARKS
MENA           FAIR      64  63  94 CALM      29.99F
MOUNT IDA      FAIR      65  62  90 CALM      29.98R
6HR MIN TEMP:  65; 6HR MAX TEMP:  74;

$$

ARZ009-017-025-026-028-180700-
NORTHEAST ARKANSAS

CITY           SKY/WX    TMP DP  RH WIND       PRES   REMARKS
CORNING          N/A     63  63 100 NW5       30.03R FOG
JONESBORO      FAIR      59  59 100 CALM      30.01S FOG
6HR MIN TEMP:  59; 6HR MAX TEMP:  68;

NEWPORT        FAIR      66  65  97 E5        30.01F
6HR MIN TEMP:  65; 6HR MAX TEMP:  72; 6HR PCP: TRACE;

WALNUT RIDGE   FAIR      63  61  94 CALM      30.01S
6HR MIN TEMP:  63; 6HR MAX TEMP:  72;

BLYTHEVILLE    FAIR      61  61 100 S3        30.02R FOG
6HR MIN TEMP:  60; 6HR MAX TEMP:  71;

$$

ARZ022-023-033-042-044-180700-
CENTRAL ARKANSAS

CITY           SKY/WX    TMP DP  RH WIND       PRES   REMARKS
LITTLE ROCK    MOCLDY    65  61  87 CALM      30.00R
6HR MIN TEMP:  65; 6HR MAX TEMP:  76;

N LITTLE ROCK    N/A     65  64  96 E6        30.00R
6HR MIN TEMP:  65; 6HR MAX TEMP:  74;

JACKSONVILLE   FAIR      62  62  99 CALM      29.99S
6HR MIN TEMP:  62; 6HR MAX TEMP:  72; 6HR PCP: TRACE;

SEARCY         FAIR      61  60  97 CALM      30.01F
6HR MIN TEMP:  59; 6HR MAX TEMP:  69;

HOT SPRINGS    MOCLDY    66  61  84 E7        30.00S
6HR MIN TEMP:  65; 6HR MAX TEMP:  75;

RUSSELLVILLE   FAIR      66  61  84 CALM      30.00S
6HR MIN TEMP:  66; 6HR MAX TEMP:  74;

CLINTON        FAIR      57  57 100 CALM      30.03S FOG
$$

ARZ036-180700-
EAST ARKANSAS

CITY           SKY/WX    TMP DP  RH WIND       PRES   REMARKS
WEST MEMPHIS   FAIR      62  62 100 NE3       29.98F
6HR MIN TEMP:  62; 6HR MAX TEMP:  70;

$$

ARZ050-053-066-070-073-180700-
SOUTHWEST ARKANSAS

CITY           SKY/WX    TMP DP  RH WIND       PRES   REMARKS
ARKADELPHIA    FAIR      68  67  96 CALM      29.99S
6HR MIN TEMP:  68; 6HR MAX TEMP:  77; 6HR PCP: TRACE;

CAMDEN         FAIR      64  59  82 CALM      29.98S
TEXARKANA      FAIR      68  65  90 E3        29.95F
6HR MIN TEMP:  68; 6HR MAX TEMP:  76;

EL DORADO      FAIR      67  62  84 NE6       29.97S
6HR MIN TEMP:  66; 6HR MAX TEMP:  75;

DE QUEEN       MOCLDY    69  64  84 E7        29.93F
6HR MIN TEMP:  66; 6HR MAX TEMP:  77;

$$

ARZ056-057-069-180700-
SOUTHEAST ARKANSAS

CITY           SKY/WX    TMP DP  RH WIND       PRES   REMARKS
PINE BLUFF     FAIR      65  62  90 CALM      29.99F
6HR MIN TEMP:  65; 6HR MAX TEMP:  74;

STUTTGART      FAIR      66  61  82 E7        30.00S
6HR MIN TEMP:  66; 6HR MAX TEMP:  73;

MONTICELLO     FAIR      64  62  93 NE6       29.98F
6HR MIN TEMP:  63; 6HR MAX TEMP:  74;


$$





USA.gov is the U.S. government's official web portal to all federal, state and local government web resources and services.